Regional Weather Roundup
Issued by NWS

Home | Current Version | Previous Version | Graphics & Text | Print | Product List | Glossary On
Versions: 1 2 3 4 5 6 7 8 9 10 11 12 13 14 15 16 17 18 19 20 21 22 23 24 25 26 27 28 29
000
ASUS45 KGTF 050110
RWRMT
MONTANA HOURLY WEATHER ROUNDUP
NATIONAL WEATHER SERVICE GREAT FALLS MT
700 PM MDT MON MAY 04 2015

NOTE: "FAIR" INDICATES FEW OR NO CLOUDS BELOW 12000 FEET WITH NO
SIGNIFICANT WEATHER AND/OR OBSTRUCTIONS TO VISIBILITY.

MTZ001>007-043-050200-
WEST OF THE DIVIDE

CITY           SKY/WX    TMP DP  RH WIND       PRES   REMARKS
KALISPELL      CLEAR     72  29  20 S8        29.75F
MISSOULA       MOSUNNY   72  33  24 CALM      29.77F
BUTTE          SUNNY     68  14  12 VRB5      29.87F
DEER LODGE       N/A     70  25  18 N5        29.86F
EUREKA           N/A     73  19  13 S5        29.73F
HAMILTON         N/A     73  30  20 NW9       29.78F
LIBBY            N/A     75  25  15 SE5       29.74S
$$

MTZ008-052>055-050200-
SOUTHWEST MONTANA

CITY           SKY/WX    TMP DP  RH WIND       PRES   REMARKS
BOZEMAN        SUNNY     72  30  21 E3        29.83F
DILLON         SUNNY     71  19  14 CALM      29.83F
$$

MTZ009-010-012-014-046-048-049-054-050200-
EAST SLOPES AND CENTRAL MONTANA

CITY           SKY/WX    TMP DP  RH WIND       PRES   REMARKS
CUT BANK       SUNNY     70  12  10 W23G29    29.79R
GREAT FALLS    SUNNY     74  12   9 W13       29.78S
MALMSTROM AFB  SUNNY     73  36  26 NE6       29.78S
HELENA         FAIR      75  30  19 E8        29.79S
$$

MTZ011-013-016-021-045-047-050-051-050200-
NORTH CENTRAL MONTANA

CITY           SKY/WX    TMP DP  RH WIND       PRES   REMARKS
HAVRE          MOSUNNY   76  38  25 SW12      29.76F
LEWISTOWN      PTSUNNY   63  41  44 SE8       29.86F
CHINOOK          N/A     75  41  29 SE3       29.77S
FORT BENTON      N/A     75  34  22 E6        29.76F
$$

MTZ017>020-022>042-056>058-061-062-050200-
EASTERN PLAINS

CITY           SKY/WX    TMP DP  RH WIND       PRES   REMARKS
BAKER          SUNNY     56  32  40 SE29G36   30.03F
BILLINGS       MOSUNNY   69  41  36 S8        29.86F
GLASGOW        SUNNY     70  40  33 SE25      29.86F
JORDAN           N/A     71  41  33 SE18G26   29.86F
LIVINGSTON     SUNNY     70  34  26 E6        29.85F
MILES CITY     SUNNY     66  40  38 SE18G30   29.92S
SIDNEY         SUNNY     64  36  34 SE22G28   30.00F
WOLF POINT     SUNNY     69  43  38 SE12G25   29.92S
BIG TIMBER       N/A     66  43  42 SE12      29.87F
FORSYTH          N/A     72  43  35 E14       29.87F
PLENTYWOOD       N/A     66  43  42 SE24      29.96S
POPLAR           N/A     68  43  40 SE21      29.94F
$$

REGIONAL REPORTS...DAKOTAS

CITY           SKY/WX    TMP DP  RH WIND       PRES   REMARKS
WILLISTON      SUNNY     66  40  38 S18G28    30.01S
MINOT          CLEAR     67  26  21 S17G24    30.06F
DICKINSON      CLEAR     56  33  42 S18G26    30.07F
BEACH          FAIR      55  32  41 SE22G36   30.04F
CROSBY         FAIR      66  32  28 S18       30.00F
WATFORD CITY   FAIR      61  39  44 S20G28    30.03S
BISMARCK       CLEAR     65  25  22 S10       30.12F
GRAND FORKS    CLEAR     67  25  20 CALM      30.15S
FARGO          CLEAR     64  30  27 S7        30.16S
BUFFALO SD       N/A     55  31  39 SE23      30.01F
RAPID CITY     CLOUDY    55  36  48 S16G24    30.10F
$$

REGIONAL REPORTS...WYOMING/IDAHO/WASHINGTON

CITY           SKY/WX    TMP DP  RH WIND       PRES   REMARKS
GILLETTE       SUNNY     57  39  51 SE21G28   29.99F
SHERIDAN       PTSUNNY   65  45  48 S8        29.91S
BUFFALO WY     PTSUNNY   62  43  49 SE18G28   29.96S
CODY           MOSUNNY   64  41  42 S9        29.93S
YELLOWSTONE LA   N/A     51  29  42 CALM      30.04F
IDAHO FALLS    PTSUNNY   73  29  19 VRB5      29.86S
SALMON           N/A     68  37  32 N3        29.79S
BOISE          MOSUNNY   81  35  19 W9        29.72F
SPOKANE        MOSUNNY   73  25  16 SW16      29.75F
$$

REGIONAL REPORTS...ALBERTA

CITY           SKY/WX    TMP DP  RH WIND       PRES   REMARKS
EDMONTON       PTSUNNY   57  30  35 E23G30    29.84F
CALGARY        MOSUNNY   68  25  19 SE10G17   29.74F
LETHBRIDGE     MOSUNNY   70  30  23 S3        29.74F
MEDICINE HAT   MOSUNNY   73  37  27 E6        29.75F
$$

REGIONAL REPORTS...SASKATCHEWAN

CITY           SKY/WX    TMP DP  RH WIND       PRES   REMARKS
SWIFT CURRENT  SUNNY     66  37  34 SE14G22   29.81F
REGINA         MOSUNNY   66  32  28 SE13      29.94F
SASKATOON      PTSUNNY   63  30  29 E17G25    29.94F
$$



USA.gov is the U.S. government's official web portal to all federal, state and local government web resources and services.